Location: Chavenne
(46.6022°N, 3.2951°E)
Time: 04:05:10
(UTC+00:00)

STARLINK-1189 - Pass Details

Date: 09 April 2020
Orbit: 378 x 381 km, 53.0° (Epoch: 02 June)

Event Time Altitude Azimuth Distance (km) Brightness Sun altitude
Rises 19:46:57 0° 299° (WNW) 2,263 8.8 -13.7°
Reaches altitude 10° 19:49:01 10° 298° (WNW) 1,406 7.2 -14.0°
Maximum altitude 19:52:09 80° 212° (SSW) 392 2.8 -14.4°
Enters shadow 19:53:22 34° 129° (SE) 649 3.4 -14.6°
